Simultaneous Nadir Overpasses (SNOs) Predictions

Prediction of SNOs between NOAA-19 and NPP Satellite Orbit:

Table of predicted SNOs for the next 14.0 days since TLE Epoch: 8/11/2017
Index Date (NOAA-19) Time (NOAA-19) Lat,Lon (NOAA-19) SZA (NOAA-19 ) Date (NPP) Time (NPP) Lat,Lon (NPP) SZA (NPP ) Distance(km) Time Diff (sec)
1 08/13/2017 12:49:44 80.80, -61.94 69.77 08/13/2017 12:50:55 80.78, -61.82 69.71 2.66 71
2 08/13/2017 13:40:43 -80.80, 105.37 110.23 08/13/2017 13:41:40 -80.78, 105.51 110.29 3.13 57
3 08/13/2017 14:31:46 80.79, -87.62 69.81 08/13/2017 14:32:26 80.80, -87.56 69.79 1.76 40
4 08/13/2017 15:22:45 -80.79, 79.69 110.19 08/13/2017 15:23:11 -80.80, 79.77 110.21 1.77 26
5 08/13/2017 16:13:47 80.80,-112.94 69.81 08/13/2017 16:13:56 80.80,-112.95 69.81 0.82 9
6 08/13/2017 17:04:46 -80.80, 54.38 110.19 08/13/2017 17:04:41 -80.80, 54.39 110.18 0.50 5
7 08/13/2017 17:55:48 80.80,-138.26 69.81 08/13/2017 17:55:26 80.81,-138.34 69.84 1.46 22
8 08/13/2017 18:46:47 -80.80, 29.07 110.19 08/13/2017 18:46:11 -80.80, 29.00 110.16 1.30 36
9 08/13/2017 19:37:49 80.81,-163.57 69.81 08/13/2017 19:36:56 80.81,-163.72 69.86 2.73 53




NCC Satellite Simultaneous Nadir Overpasses (SNOs) Prediction Service
